Weather in Medayevo

Russia / Republic of Mordovia     54°26′26″N   46°00′11″E
temp.,
°C
wind,
m/s
gust,
m/s
humid.,
%
clouds,
%
prec.,
mm/h
press.,
hPa
HPBL,
m
28 september, tue
tue2800:00+4ne61094100 0.3 1020696
03:00+4ne6989100 0.3 1022806
06:00+3ne61087100 0.1 1024848
09:00+4ne6108389 0.1 1025725
12:00+7ne67586 0.0 10261176
15:00+9ne6749100 0.0 10271391
18:00+5nne38655 0.0 1029164
21:00+3nne35745 0.0 103085
29 september, wed
wed2900:00+3n2476100 0.0 103097
03:00+2n228166 0.0 103139
06:00+1n228531 0.0 103230
09:00+5nne356722 0.0 1032398
12:00+8nne445455 0.0 10311082
15:00+9n454949 0.0 10311273
18:00+5n336446 0.0 103132
21:00+4n226869 0.0 103111
30 september, thu
thu3000:00+4nnw227288 0.0 103213
03:00+3nnw227688 0.0 103222
06:00+3nnw227985 0.0 103247
09:00+6nnw347141 0.0 1033403
12:00+8nnw2372100 0.0 1032578
15:00+10nnw246253 0.0 1032869
18:00+9wnw3570100 0.0 1031166
21:00+8wnw2572100 0.0 1031150
1 october, fri
fri100:00+8wnw257487 0.0 1032143
03:00+7wnw258698 0.0 1032119
06:00+8wnw2685100 0.0 1032215
09:00+10nnw468132 0.0 1032408
12:00+13nnw456412 0.0 1032958
15:00+14nnw45565 0.0 10311107
18:00+11nnw227645 0.0 103215
21:00+11nnw267885 0.0 1032166
2 october, sat
sat200:00+9nw238944 0.0 103250
03:00+8nw229328 0.0 103323
06:00+8nw229399 0.0 103335
09:00+10nw2384100 0.0 1033161
12:00+11nw2377100 0.0 1033338
15:00+12nnw2376100 0.0 1033439
18:00+11nnw1183100 0.0 103318
21:00+10n1185100 0.0 103410